Terminal Aerodrome Forecast
Issued by NWS Cleveland, OH

Home | Current Version | Previous Version | Graphics & Text | Print | Product List | Glossary On
Versions: 1 2 3 4 5 6 7 8 9 10 11 12 13 14 15 16 17
000
FTUS41 KCLE 150800 AAA
TAFYNG
TAF AMD
KYNG 150851Z 1509/1606 33012KT 6SM -RA BR OVC006
      TEMPO 1509/1511 4SM -RASNPL BR OVC003
     FM151100 32012G16KT 3SM -SN BR OVC008
      TEMPO 1511/1515 1SM -SN BR OVC003
     FM151500 30012G18KT 4SM -SHSN BR OVC015
      TEMPO 1515/1519 1SM -SHSN BR OVC008
     FM151900 30015G25KT P6SM OVC015
     FM160000 32015G25KT P6SM OVC025
     FM160400 32009KT P6SM SCT250=

USA.gov is the U.S. government's official web portal to all federal, state and local government web resources and services.